Clinton-Sherman, OK

9:57 AM CST on January 16, 2018 (GMT -0600)
Clinton-Sherman

Weather History for KCSM - June, 2014

Change the Weather History Date:

Tuesday, June 17, 2014

  Actual Average Record
Temperature  
Mean Temperature 86 °F -  
Max Temperature 96 °F 86 °F 106 °F (2011)
Min Temperature 75 °F 64 °F 55 °F (1999)
Cooling Degree Days 20    
Growing Degree Days 36 (Base 50)    
Moisture  
Dew Point 67 °F    
Average Humidity 55    
Maximum Humidity 76    
Minimum Humidity 38    
Precipitation  
Precipitation 0.00 in - - ()
Sea Level Pressure  
Sea Level Pressure 29.78 in    
Wind  
Wind Speed 25 mph (South)    
Max Wind Speed 32 mph    
Max Gust Speed 43 mph    
Visibility 10 miles    
Events      
Averages and records for this station are not official NWS values.
T = Trace of Precipitation, MM = Missing Value Source: NWS Daily Summary

Daily Weather History Graph

Daily Weather History Graph

Search for Another Location

Airport or City:

Trip Planner

Search our weather history database for the weather conditions in past years. The results will help you decide how hot, cold, wet, or windy it might be!

Date:

Astronomy

Jun. 17, 2014 Rise Set
Actual Time 6:21 AM CDT 8:53 PM CDT
Civil Twilight 5:51 AM CDT 9:23 PM CDT
Nautical Twilight 5:14 AM CDT 10:00 PM CDT
Astronomical Twilight 4:33 AM CDT 10:41 PM CDT
Moon No Moon Rise 11:28 AM CDT (6/17)
Length of Visible Light 15h 32m
Length of Day
14h 32m
Waning Gibbous, 73% of the Moon is Illuminated
Jun 17
Waning Gibbous
Jun 19
Last Quarter
Jun 27
New
Jul 5
First Quarter
Jul 12
Full

Hourly Weather History & Observations

Time (CDT) Temp. Heat Index Dew Point Humidity Pressure Visibility Wind Dir Wind Speed Gust Speed Precip Events Conditions
12:53 AM 82.0 °F 83.1 °F 63.0 °F 52% 29.79 in 10.0 mi South 21.9 mph 31.1 mph N/A   Clear
1:53 AM 81.0 °F 82.2 °F 63.0 °F 54% 29.78 in 10.0 mi South 24.2 mph - N/A   Clear
2:53 AM 78.1 °F - 64.0 °F 62% 29.77 in 10.0 mi South 24.2 mph - N/A   Clear
3:53 AM 77.0 °F - 64.9 °F 66% 29.78 in 10.0 mi South 23.0 mph 31.1 mph N/A   Clear
4:53 AM 75.9 °F - 64.9 °F 69% 29.77 in 10.0 mi South 25.3 mph 33.4 mph N/A   Clear
5:53 AM 75.0 °F - 66.0 °F 73% 29.78 in 10.0 mi South 26.5 mph 33.4 mph N/A   Clear
6:53 AM 75.0 °F - 66.9 °F 76% 29.81 in 10.0 mi South 25.3 mph 32.2 mph N/A   Clear
7:53 AM 77.0 °F - 68.0 °F 74% 29.81 in 10.0 mi South 31.1 mph 40.3 mph N/A   Clear
8:53 AM 79.0 °F - 69.1 °F 72% 29.82 in 10.0 mi SSW 28.8 mph 42.6 mph N/A   Clear
9:53 AM 82.9 °F 86.5 °F 69.1 °F 63% 29.81 in 10.0 mi SSW 32.2 mph 39.1 mph N/A   Clear
10:53 AM 86.0 °F 90.1 °F 69.1 °F 57% 29.81 in 10.0 mi South 27.6 mph 39.1 mph N/A   Clear
11:53 AM 88.0 °F 92.1 °F 69.1 °F 53% 29.81 in 10.0 mi South 26.5 mph 40.3 mph N/A   Clear
12:53 PM 90.0 °F 94.5 °F 69.1 °F 50% 29.82 in 10.0 mi South 21.9 mph 28.8 mph N/A   Scattered Clouds
1:53 PM 93.0 °F 97.9 °F 69.1 °F 45% 29.79 in 10.0 mi South 24.2 mph 32.2 mph N/A   Clear
2:53 PM 93.9 °F 97.5 °F 66.9 °F 41% 29.78 in 10.0 mi South 26.5 mph 32.2 mph N/A   Clear
3:53 PM 96.1 °F 101.0 °F 68.0 °F 40% 29.76 in 10.0 mi South 24.2 mph 35.7 mph N/A   Partly Cloudy
4:53 PM 95.0 °F 97.9 °F 66.0 °F 38% 29.75 in 10.0 mi South 27.6 mph 33.4 mph N/A   Clear
5:53 PM 95.0 °F 97.9 °F 66.0 °F 38% 29.74 in 10.0 mi South 27.6 mph 34.5 mph N/A   Clear
6:53 PM 93.0 °F 95.9 °F 66.0 °F 41% 29.74 in 10.0 mi South 26.5 mph 32.2 mph N/A   Clear
7:53 PM 91.9 °F 94.5 °F 66.0 °F 42% 29.74 in 10.0 mi South 23.0 mph 29.9 mph N/A   Clear
8:53 PM 88.0 °F 90.7 °F 66.9 °F 49% 29.75 in 10.0 mi South 18.4 mph - N/A   Clear
9:53 PM 84.9 °F 87.6 °F 66.9 °F 55% 29.76 in 10.0 mi SSE 16.1 mph - N/A   Clear
10:53 PM 84.0 °F 86.3 °F 66.0 °F 55% 29.79 in 10.0 mi South 23.0 mph 31.1 mph N/A   Clear
11:53 PM 82.9 °F 85.0 °F 66.0 °F 56% 29.80 in 10.0 mi South 24.2 mph 34.5 mph N/A   Clear